Weather History for KBWD - June, 2013

Change the Weather History Date:

Friday, June 28, 2013

  Actual Average (KABI) Record (KABI)
Temperature  
Mean Temperature 85 °F 82 °F  
Max Temperature 104 °F 92 °F 109 °F (1980)
Min Temperature 66 °F 71 °F 56 °F (1985)
Degree Days  
Heating Degree Days 0 0  
Month to date heating degree days 0  
Since 1 June heating degree days 0  
Since 1 July heating degree days 2558  
Cooling Degree Days 20 16  
Month to date cooling degree days 401  
Year to date cooling degree days 798  
Since 1 June cooling degree days 401  
Growing Degree Days 35 (Base 50)    
Moisture  
Dew Point 57 °F    
Average Humidity 38    
Maximum Humidity 68    
Minimum Humidity 17    
Precipitation  
Precipitation 0.19 in 0.09 in 1.42 in (1932)
Month to date precipitation 3.40  
Year to date precipitation 12.34  
Sea Level Pressure  
Sea Level Pressure 29.96 in    
Wind  
Wind Speed 4 mph (NNW)    
Max Wind Speed 15 mph    
Max Gust Speed 21 mph    
Visibility 10 miles    
Events Rain    
T = Trace of Precipitation, MM = Missing Value Source: NWS Daily Summary

Daily Weather History Graph

Daily Weather History Graph

Search for Another Location

Airport or City:

Trip Planner

Search our weather history database for the weather conditions in past years. The results will help you decide how hot, cold, wet, or windy it might be!

Date:

Astronomy

Jun. 28, 2013 Rise Set
Actual Time 6:32 AM CDT 8:45 PM CDT
Civil Twilight 6:04 AM CDT 9:13 PM CDT
Nautical Twilight 5:30 AM CDT 9:47 PM CDT
Astronomical Twilight 4:53 AM CDT 10:24 PM CDT
Moon 12:04 AM CDT 12:19 PM CDT
Length of Visible Light 15h 08m
Length of Day
14h 12m
Waning Gibbous, 66% of the Moon is Illuminated
Jun 28
Waning Gibbous
Jun 29
Last Quarter
Jul 8
New
Jul 15
First Quarter
Jul 22
Full

Hourly Weather History & Observations

Time (CDT) Temp. Heat Index Dew Point Humidity Pressure Visibility Wind Dir Wind Speed Gust Speed Precip Events Conditions
12:15 AM 80.6 °F - 50.0 °F 34% 30.01 in 10.0 mi Calm Calm - N/A   Clear
12:35 AM 77.0 °F - 55.4 °F 47% 30.00 in 10.0 mi Calm Calm - N/A   Clear
12:55 AM 75.2 °F - 55.4 °F 50% 30.00 in 10.0 mi SSW 3.5 mph - N/A   Clear
1:15 AM 73.4 °F - 53.6 °F 50% 30.00 in 10.0 mi SSW 3.5 mph - N/A   Clear
1:35 AM 75.2 °F - 51.8 °F 44% 30.00 in 10.0 mi Calm Calm - N/A   Clear
1:55 AM 75.2 °F - 51.8 °F 44% 30.00 in 10.0 mi SE 3.5 mph - N/A   Clear
2:15 AM 73.4 °F - 55.4 °F 53% 29.97 in 10.0 mi Calm Calm - N/A   Clear
2:35 AM 73.4 °F - 51.8 °F 47% 29.97 in 10.0 mi South 3.5 mph - N/A   Clear
2:55 AM 75.2 °F - 53.6 °F 47% 29.98 in 10.0 mi NNE 3.5 mph - N/A   Clear
3:15 AM 75.2 °F - 53.6 °F 47% 29.99 in 10.0 mi North 4.6 mph - N/A   Clear
3:35 AM 69.8 °F - 55.4 °F 60% 29.98 in 10.0 mi Calm Calm - N/A   Clear
3:55 AM 69.8 °F - 55.4 °F 60% 29.98 in 10.0 mi Calm Calm - N/A   Clear
4:15 AM 69.8 °F - 55.4 °F 60% 29.98 in 10.0 mi Calm Calm - N/A   Clear
4:35 AM 71.6 °F - 55.4 °F 57% 29.99 in 10.0 mi Calm Calm - N/A   Clear
4:55 AM 68.0 °F - 55.4 °F 64% 29.99 in 10.0 mi Calm Calm - N/A   Clear
5:15 AM 68.0 °F - 55.4 °F 64% 29.99 in 10.0 mi ESE 5.8 mph - N/A   Clear
5:35 AM 71.6 °F - 53.6 °F 53% 29.99 in 10.0 mi Calm Calm - N/A   Clear
5:55 AM 68.0 °F - 55.4 °F 64% 30.00 in 10.0 mi NW 3.5 mph - N/A   Clear
6:15 AM 68.0 °F - 55.4 °F 64% 29.99 in 10.0 mi Calm Calm - N/A   Clear
6:35 AM 66.2 °F - 55.4 °F 68% 30.00 in 10.0 mi Calm Calm - N/A   Clear
6:55 AM 69.8 °F - 55.4 °F 60% 30.01 in 10.0 mi Calm Calm - N/A   Clear
7:55 AM 73.4 °F - 57.2 °F 57% 30.04 in 10.0 mi Calm Calm - N/A   Clear
8:15 AM 75.2 °F - 57.2 °F 53% 30.04 in 10.0 mi Calm Calm - N/A   Clear
8:35 AM 77.0 °F - 55.4 °F 47% 30.04 in 10.0 mi Calm Calm - N/A   Clear
8:55 AM 80.6 °F 80.5 °F 55.4 °F 42% 30.04 in 10.0 mi SW 3.5 mph - N/A   Clear
9:15 AM 82.4 °F 82.0 °F 57.2 °F 42% 30.04 in 10.0 mi SSW 4.6 mph - N/A   Clear
9:35 AM 82.4 °F 82.5 °F 59.0 °F 45% 30.04 in 10.0 mi SW 4.6 mph - N/A   Clear
9:55 AM 86.0 °F 86.6 °F 62.6 °F 45% 30.04 in 10.0 mi West 9.2 mph - N/A   Clear
10:15 AM 86.0 °F 87.3 °F 64.4 °F 48% 30.03 in 10.0 mi West 11.5 mph - N/A   Clear
10:35 AM 87.8 °F 89.4 °F 64.4 °F 46% 30.03 in 10.0 mi West 11.5 mph - N/A   Clear
10:55 AM 89.6 °F 91.1 °F 64.4 °F 43% 30.02 in 10.0 mi WSW 9.2 mph - N/A   Clear
11:15 AM 91.4 °F 93.2 °F 64.4 °F 41% 30.02 in 10.0 mi WSW 8.1 mph 17.3 mph N/A   Clear
11:35 AM 91.4 °F 93.2 °F 64.4 °F 41% 30.02 in 10.0 mi WSW 8.1 mph - N/A   Clear
11:55 AM 91.4 °F 93.2 °F 64.4 °F 41% 30.01 in 10.0 mi WSW 6.9 mph - N/A   Clear
12:15 PM 91.4 °F 92.1 °F 62.6 °F 38% 30.01 in 10.0 mi WNW 10.4 mph - N/A   Clear
12:35 PM 93.2 °F 94.1 °F 62.6 °F 36% 30.00 in 10.0 mi WNW 8.1 mph - N/A   Clear
12:55 PM 95.0 °F 94.4 °F 59.0 °F 30% 30.00 in 10.0 mi West 10.4 mph 16.1 mph N/A   Clear
1:15 PM 95.0 °F 94.4 °F 59.0 °F 30% 29.99 in 10.0 mi WNW 5.8 mph - N/A   Clear
1:35 PM 96.8 °F 96.2 °F 59.0 °F 28% 29.99 in 10.0 mi WNW 10.4 mph - N/A   Clear
1:55 PM 98.6 °F 98.5 °F 59.0 °F 27% 29.98 in 10.0 mi West 5.8 mph - N/A   Clear
2:15 PM 98.6 °F 97.6 °F 57.2 °F 25% 29.96 in 10.0 mi SSW 3.5 mph 18.4 mph N/A   Clear
2:35 PM 100.4 °F 99.7 °F 57.2 °F 24% 29.95 in 10.0 mi NW 6.9 mph - N/A   Clear
2:55 PM 100.4 °F 98.8 °F 55.4 °F 22% 29.94 in 10.0 mi WNW 9.2 mph 16.1 mph N/A Rain Light Rain
3:15 PM 102.2 °F 100.9 °F 55.4 °F 21% 29.93 in - NW 10.4 mph - N/A Rain Light Rain
3:35 PM 102.2 °F 100.9 °F 55.4 °F 21% 29.92 in 10.0 mi WNW 11.5 mph - 0.01 in Rain Light Rain
3:55 PM 102.2 °F 100.4 °F 53.6 °F 20% 29.91 in 10.0 mi West 10.4 mph - 0.02 in Rain Light Rain
4:15 PM 102.2 °F 100.4 °F 53.6 °F 20% 29.90 in 10.0 mi NW 9.2 mph - N/A Rain Light Rain
4:35 PM 104.0 °F 102.3 °F 53.6 °F 19% 29.89 in 10.0 mi NW 9.2 mph - 0.02 in Rain Light Rain
4:55 PM 104.0 °F 102.3 °F 53.6 °F 19% 29.88 in 10.0 mi NNW 6.9 mph - 0.05 in Rain Light Rain
5:15 PM 104.0 °F - 51.8 °F 17% 29.88 in - North 15.0 mph 20.7 mph 0.02 in Rain Rain
5:35 PM 104.0 °F - 51.8 °F 17% 29.87 in 10.0 mi North 11.5 mph - 0.05 in Rain Light Rain
5:55 PM 104.0 °F - 51.8 °F 17% 29.86 in 10.0 mi NNW 6.9 mph - 0.08 in Rain Light Rain
6:15 PM 104.0 °F 102.3 °F 53.6 °F 19% 29.86 in 10.0 mi North 6.9 mph - 0.01 in Rain Light Rain
6:35 PM 104.0 °F 102.3 °F 53.6 °F 19% 29.86 in 10.0 mi North 9.2 mph - 0.03 in Rain Light Rain
6:55 PM 102.2 °F 100.4 °F 53.6 °F 20% 29.86 in 10.0 mi NNE 9.2 mph - 0.04 in Rain Light Rain
7:15 PM 102.2 °F 100.9 °F 55.4 °F 21% 29.86 in 10.0 mi NNE 11.5 mph 17.3 mph N/A Rain Light Rain
7:35 PM 100.4 °F 98.8 °F 55.4 °F 22% 29.86 in 10.0 mi NNE 9.2 mph - N/A   Clear
7:55 PM 100.4 °F 98.8 °F 55.4 °F 22% 29.87 in 10.0 mi NE 8.1 mph - N/A   Clear
8:15 PM 98.6 °F 97.6 °F 57.2 °F 25% 29.87 in 10.0 mi ENE 10.4 mph - N/A   Clear
8:35 PM 96.8 °F 95.8 °F 57.2 °F 27% 29.87 in 10.0 mi ENE 4.6 mph - N/A   Clear
8:55 PM 95.0 °F 93.7 °F 57.2 °F 28% 29.87 in 10.0 mi ENE 4.6 mph - N/A   Clear
9:15 PM 91.4 °F 89.9 °F 57.2 °F 31% 29.88 in 10.0 mi ENE 4.6 mph - N/A   Clear
9:35 PM 91.4 °F 90.7 °F 59.0 °F 34% 29.89 in 10.0 mi NE 4.6 mph - N/A   Clear
9:55 PM 89.6 °F 88.9 °F 59.0 °F 36% 29.89 in 10.0 mi NE 6.9 mph - N/A   Clear
10:15 PM 89.6 °F 88.9 °F 59.0 °F 36% 29.90 in 10.0 mi NE 6.9 mph - N/A   Clear
10:35 PM 89.6 °F 88.9 °F 59.0 °F 36% 29.91 in 10.0 mi ENE 8.1 mph - N/A   Clear
10:55 PM 89.6 °F 88.9 °F 59.0 °F 36% 29.91 in 10.0 mi ENE 9.2 mph - N/A   Clear
11:15 PM 89.6 °F 88.9 °F 59.0 °F 36% 29.91 in 10.0 mi ENE 8.1 mph - N/A   Clear
11:35 PM 87.8 °F 87.6 °F 60.8 °F 40% 29.91 in 10.0 mi ENE 8.1 mph - N/A   Clear
11:55 PM 86.0 °F 86.1 °F 60.8 °F 43% 29.91 in 10.0 mi NE 8.1 mph - N/A   Partly Cloudy